DAL1686 KLAS-KSAN

Flight info

Callsign DAL1686
Flight time 0h 52m
Altitude 30000
Route RADYR2 LVELL LUCKI1
Aircraft A321/M-SDE3FGHIRWY/LB1

Departure

Time 2026-05-04 14:43
Airport Harry Reid International Airport (KLAS)

Arrival

Time 2026-05-04 15:36
Airport San Diego International Airport (KSAN)
Time Latitude Longitude Altitude Speed Heading
2026-05-04 14:23 36.08055 -115.13655 2064 ft 0 kts 46°
2026-05-04 14:33 36.08052 -115.13658 2065 ft 2 kts 45°
2026-05-04 14:34 36.08041 -115.13671 2065 ft 2 kts 42°
2026-05-04 14:34 36.08030 -115.13684 2066 ft 2 kts 44°
2026-05-04 14:34 36.08019 -115.13697 2066 ft 2 kts 43°
2026-05-04 14:34 36.08008 -115.13710 2066 ft 2 kts 44°
2026-05-04 14:35 36.08006 -115.13713 2067 ft 0 kts 44°
2026-05-04 14:37 36.08007 -115.13711 2066 ft 1 kts 45°
2026-05-04 14:37 36.08011 -115.13687 2066 ft 4 kts 109°
2026-05-04 14:38 36.07981 -115.13661 2066 ft 5 kts 153°
2026-05-04 14:38 36.07941 -115.13637 2066 ft 6 kts 152°
2026-05-04 14:38 36.07899 -115.13599 2066 ft 8 kts 137°
2026-05-04 14:38 36.07857 -115.13544 2066 ft 9 kts 130°
2026-05-04 14:39 36.07830 -115.13456 2064 ft 12 kts 97°
2026-05-04 14:39 36.07778 -115.13357 2061 ft 15 kts 126°
2026-05-04 14:39 36.07757 -115.13219 2057 ft 18 kts 91°
2026-05-04 14:40 36.07757 -115.12869 2048 ft 21 kts 91°
2026-05-04 14:40 36.07756 -115.12678 2045 ft 22 kts 89°
2026-05-04 14:40 36.07757 -115.12476 2041 ft 22 kts 90°
2026-05-04 14:40 36.07759 -115.12304 2038 ft 14 kts 90°
2026-05-04 14:41 36.07759 -115.12238 2038 ft 5 kts 89°
2026-05-04 14:41 36.07756 -115.12182 2038 ft 7 kts 106°
2026-05-04 14:41 36.07665 -115.12124 2039 ft 8 kts 187°
2026-05-04 14:42 36.07642 -115.12273 2039 ft 19 kts 270°
2026-05-04 14:42 36.07637 -115.12736 2048 ft 89 kts 269°
2026-05-04 14:42 36.07636 -115.13800 2076 ft 151 kts 271°
2026-05-04 14:43 36.07629 -115.15301 2205 ft 190 kts 267°
2026-05-04 14:43 36.07644 -115.17019 2655 ft 206 kts 270°
2026-05-04 14:43 36.07627 -115.18835 3270 ft 217 kts 266°
2026-05-04 14:43 36.07566 -115.20702 3975 ft 222 kts 265°
2026-05-04 14:44 36.07361 -115.22545 4620 ft 218 kts 257°
2026-05-04 14:44 36.07046 -115.24447 4906 ft 231 kts 250°
2026-05-04 14:44 36.06164 -115.26115 5165 ft 242 kts 216°
2026-05-04 14:44 36.04646 -115.27073 5503 ft 254 kts 198°
2026-05-04 14:45 36.02911 -115.27813 5913 ft 269 kts 197°
2026-05-04 14:45 36.01112 -115.28580 6586 ft 273 kts 197°
2026-05-04 14:45 35.99301 -115.29300 7297 ft 274 kts 194°
2026-05-04 14:45 35.97443 -115.29847 7948 ft 277 kts 190°
2026-05-04 14:46 35.95549 -115.30314 8588 ft 281 kts 189°
2026-05-04 14:46 35.93578 -115.30792 9235 ft 284 kts 189°
2026-05-04 14:46 35.91645 -115.31262 9840 ft 287 kts 189°
2026-05-04 14:46 35.89657 -115.31747 10396 ft 293 kts 189°
2026-05-04 14:47 35.87617 -115.32242 10677 ft 308 kts 190°
2026-05-04 14:47 35.85457 -115.32766 10951 ft 323 kts 190°
2026-05-04 14:47 35.83192 -115.33316 11219 ft 338 kts 190°
2026-05-04 14:47 35.80828 -115.33892 11551 ft 350 kts 190°
2026-05-04 14:48 35.78454 -115.34473 12108 ft 354 kts 190°
2026-05-04 14:48 35.76029 -115.35067 12721 ft 356 kts 190°
2026-05-04 14:48 35.73589 -115.35666 13307 ft 359 kts 190°
2026-05-04 14:48 35.71140 -115.36267 13877 ft 361 kts 190°
2026-05-04 14:49 35.68678 -115.36871 14433 ft 364 kts 190°
2026-05-04 14:49 35.66179 -115.37486 14981 ft 366 kts 190°
2026-05-04 14:49 35.63647 -115.38097 15519 ft 369 kts 189°
2026-05-04 14:49 35.61074 -115.38497 16041 ft 371 kts 183°
2026-05-04 14:50 35.58505 -115.38592 16547 ft 372 kts 178°
2026-05-04 14:50 35.55885 -115.38447 17048 ft 375 kts 176°
2026-05-04 14:50 35.53263 -115.38257 17534 ft 377 kts 176°
2026-05-04 14:50 35.50613 -115.38058 18010 ft 379 kts 176°
2026-05-04 14:51 35.48006 -115.37867 18465 ft 382 kts 176°
2026-05-04 14:51 35.45318 -115.37671 18919 ft 384 kts 176°
2026-05-04 14:51 35.42647 -115.37479 19357 ft 386 kts 176°
2026-05-04 14:51 35.39939 -115.37286 19791 ft 389 kts 176°
2026-05-04 14:52 35.37235 -115.37094 20209 ft 391 kts 176°
2026-05-04 14:52 35.34536 -115.36903 20619 ft 393 kts 176°
2026-05-04 14:52 35.31802 -115.36710 21020 ft 395 kts 176°
2026-05-04 14:52 35.29018 -115.36513 21413 ft 398 kts 176°
2026-05-04 14:53 35.26252 -115.36317 21796 ft 400 kts 176°
2026-05-04 14:53 35.23475 -115.36121 22171 ft 402 kts 176°
2026-05-04 14:53 35.20672 -115.35923 22539 ft 404 kts 176°
2026-05-04 14:53 35.17843 -115.35724 22900 ft 407 kts 176°
2026-05-04 14:54 35.14992 -115.35523 23251 ft 409 kts 176°
2026-05-04 14:54 35.12147 -115.35323 23597 ft 411 kts 176°
2026-05-04 14:54 35.09283 -115.35123 23938 ft 413 kts 176°
2026-05-04 14:54 35.06370 -115.34919 24272 ft 415 kts 177°
2026-05-04 14:55 35.03483 -115.34718 24596 ft 417 kts 177°
2026-05-04 14:55 35.00571 -115.34516 24950 ft 418 kts 177°
2026-05-04 14:55 34.97679 -115.34315 25350 ft 418 kts 177°
2026-05-04 14:55 34.94788 -115.34114 25764 ft 417 kts 177°
2026-05-04 14:56 34.91869 -115.33912 26169 ft 416 kts 178°
2026-05-04 14:56 34.88985 -115.33712 26638 ft 413 kts 178°
2026-05-04 14:56 34.86147 -115.33515 27197 ft 408 kts 178°
2026-05-04 14:56 34.83334 -115.33322 27668 ft 404 kts 178°
2026-05-04 14:57 34.80519 -115.33317 28016 ft 403 kts 185°
2026-05-04 14:57 34.77731 -115.33711 28349 ft 402 kts 191°
2026-05-04 14:57 34.75028 -115.34490 28690 ft 400 kts 197°
2026-05-04 14:57 34.72402 -115.35568 29031 ft 399 kts 200°
2026-05-04 14:58 34.69815 -115.36701 29368 ft 398 kts 200°
2026-05-04 14:58 34.67225 -115.37845 29681 ft 397 kts 200°
2026-05-04 14:58 34.64604 -115.39001 29879 ft 397 kts 200°
2026-05-04 14:58 34.62883 -115.39757 29896 ft 400 kts 200°
2026-05-04 14:59 34.56722 -115.42457 29932 ft 408 kts 200°
2026-05-04 15:00 34.48743 -115.45938 29976 ft 407 kts 200°
2026-05-04 15:00 34.43406 -115.48262 29989 ft 407 kts 200°
2026-05-04 15:01 34.35463 -115.51789 29996 ft 407 kts 203°
2026-05-04 15:01 34.30346 -115.54733 29997 ft 407 kts 208°
2026-05-04 15:02 34.25506 -115.58208 29997 ft 407 kts 211°
2026-05-04 15:02 34.20542 -115.61512 29996 ft 407 kts 206°
2026-05-04 15:03 34.15355 -115.64173 29997 ft 407 kts 202°
2026-05-04 15:03 34.10062 -115.66688 29997 ft 407 kts 201°
2026-05-04 15:04 34.04832 -115.69176 29995 ft 407 kts 201°
2026-05-04 15:04 33.99559 -115.71663 29983 ft 407 kts 201°
2026-05-04 15:05 33.94268 -115.74152 29962 ft 407 kts 201°
2026-05-04 15:05 33.88968 -115.76693 29940 ft 407 kts 202°
2026-05-04 15:06 33.83703 -115.79278 29924 ft 407 kts 202°
2026-05-04 15:07 33.75858 -115.83107 29918 ft 407 kts 201°
2026-05-04 15:07 33.70580 -115.85581 29915 ft 407 kts 201°
2026-05-04 15:08 33.65320 -115.88033 29915 ft 407 kts 201°
2026-05-04 15:08 33.60038 -115.90497 29915 ft 407 kts 201°
2026-05-04 15:09 33.54753 -115.92999 29910 ft 407 kts 205°
2026-05-04 15:09 33.52354 -115.94701 29913 ft 408 kts 216°
2026-05-04 15:09 33.50238 -115.96996 29914 ft 409 kts 226°
2026-05-04 15:10 33.45278 -116.05239 29858 ft 408 kts 233°
2026-05-04 15:10 33.42052 -116.10817 28522 ft 413 kts 233°
2026-05-04 15:11 33.40408 -116.13646 27805 ft 414 kts 233°
2026-05-04 15:11 33.38767 -116.16464 27062 ft 416 kts 232°
2026-05-04 15:11 33.37106 -116.19312 26252 ft 419 kts 232°
2026-05-04 15:11 33.35407 -116.22173 25399 ft 421 kts 229°
2026-05-04 15:12 33.33361 -116.24709 24497 ft 422 kts 218°
2026-05-04 15:12 33.30963 -116.26650 23806 ft 418 kts 207°
2026-05-04 15:12 33.28397 -116.28217 23300 ft 411 kts 205°
2026-05-04 15:12 33.25806 -116.29729 22825 ft 405 kts 204°
2026-05-04 15:13 33.23311 -116.31176 22375 ft 399 kts 204°
2026-05-04 15:13 33.20822 -116.32622 21929 ft 393 kts 204°
2026-05-04 15:13 33.18368 -116.34051 21492 ft 387 kts 204°
2026-05-04 15:13 33.15965 -116.35454 21065 ft 381 kts 204°
2026-05-04 15:14 33.13591 -116.36840 20648 ft 375 kts 204°
2026-05-04 15:14 33.11267 -116.38197 20241 ft 370 kts 204°
2026-05-04 15:14 33.08971 -116.39538 19843 ft 364 kts 204°
2026-05-04 15:14 33.06712 -116.40858 19450 ft 359 kts 204°
2026-05-04 15:15 33.04471 -116.42165 19058 ft 354 kts 204°
2026-05-04 15:15 33.02278 -116.43458 18673 ft 349 kts 205°
2026-05-04 15:15 33.00187 -116.44974 18285 ft 346 kts 212°
2026-05-04 15:16 32.96501 -116.48534 17554 ft 338 kts 217°
2026-05-04 15:16 32.94710 -116.50356 17174 ft 334 kts 217°
2026-05-04 15:16 32.91198 -116.53912 16263 ft 331 kts 217°
2026-05-04 15:17 32.89456 -116.55663 15803 ft 330 kts 217°
2026-05-04 15:17 32.86012 -116.59110 15195 ft 318 kts 217°
2026-05-04 15:17 32.84331 -116.60802 14905 ft 313 kts 218°
2026-05-04 15:18 32.82965 -116.62793 14576 ft 315 kts 243°
2026-05-04 15:18 32.82536 -116.65337 14253 ft 318 kts 272°
2026-05-04 15:18 32.83197 -116.67812 13937 ft 318 kts 303°
2026-05-04 15:19 32.86814 -116.70416 13323 ft 304 kts 358°
2026-05-04 15:19 32.88844 -116.70124 13035 ft 293 kts 24°
2026-05-04 15:19 32.92001 -116.67361 12492 ft 276 kts 45°
2026-05-04 15:20 32.93417 -116.65817 12195 ft 273 kts 45°
2026-05-04 15:20 32.94811 -116.64340 11864 ft 272 kts 44°
2026-05-04 15:20 32.96237 -116.62867 11463 ft 273 kts 43°
2026-05-04 15:20 32.97519 -116.61216 11029 ft 271 kts 62°
2026-05-04 15:21 32.98138 -116.59097 10570 ft 270 kts 85°
2026-05-04 15:21 32.97973 -116.56902 10116 ft 270 kts 108°
2026-05-04 15:21 32.96284 -116.52932 9210 ft 273 kts 102°
2026-05-04 15:22 32.96088 -116.50699 8804 ft 273 kts 90°
2026-05-04 15:22 32.96183 -116.48482 8671 ft 262 kts 79°
2026-05-04 15:22 32.97893 -116.45115 8650 ft 233 kts 27°
2026-05-04 15:23 32.99414 -116.44722 8639 ft 220 kts 354°
2026-05-04 15:23 33.00824 -116.45358 8658 ft 222 kts 320°
2026-05-04 15:23 33.01694 -116.46855 8659 ft 227 kts 283°
2026-05-04 15:23 33.01627 -116.48804 8681 ft 250 kts 244°
2026-05-04 15:24 32.99012 -116.51446 8686 ft 253 kts 205°
2026-05-04 15:24 32.95890 -116.53355 8671 ft 253 kts 205°
2026-05-04 15:25 32.94338 -116.54348 8671 ft 253 kts 206°
2026-05-04 15:25 32.92799 -116.55357 8671 ft 253 kts 207°
2026-05-04 15:25 32.91271 -116.56376 8671 ft 253 kts 207°
2026-05-04 15:26 32.88187 -116.58447 8671 ft 253 kts 207°
2026-05-04 15:26 32.86671 -116.59467 8571 ft 253 kts 207°
2026-05-04 15:26 32.83605 -116.61569 8316 ft 253 kts 213°
2026-05-04 15:27 32.82222 -116.62859 8195 ft 253 kts 218°
2026-05-04 15:27 32.79561 -116.65594 7825 ft 253 kts 219°
2026-05-04 15:28 32.77087 -116.68581 7369 ft 252 kts 234°
2026-05-04 15:28 32.76163 -116.70340 7147 ft 250 kts 240°
2026-05-04 15:28 32.74506 -116.73903 6686 ft 241 kts 241°
2026-05-04 15:29 32.73711 -116.75610 6462 ft 237 kts 241°
2026-05-04 15:30 32.70587 -116.82470 5982 ft 235 kts 247°
2026-05-04 15:30 32.68801 -116.88127 4747 ft 251 kts 250°
2026-05-04 15:31 32.67657 -116.91998 4069 ft 245 kts 252°
2026-05-04 15:31 32.67359 -116.93940 3813 ft 240 kts 274°
2026-05-04 15:32 32.68571 -116.99352 3318 ft 212 kts 288°
2026-05-04 15:32 32.69413 -117.02668 2659 ft 204 kts 287°
2026-05-04 15:33 32.70144 -117.05613 2405 ft 164 kts 286°
2026-05-04 15:34 32.71049 -117.09259 1546 ft 151 kts 284°
2026-05-04 15:34 32.71320 -117.10478 1402 ft 151 kts 285°
2026-05-04 15:34 32.71896 -117.12914 1073 ft 152 kts 285°
2026-05-04 15:35 32.72433 -117.15293 657 ft 144 kts 286°
2026-05-04 15:35 32.72725 -117.16423 410 ft 142 kts 288°
2026-05-04 15:35 32.73014 -117.17554 128 ft 140 kts 286°
2026-05-04 15:36 32.73428 -117.19276 26 ft 42 kts 286°
2026-05-04 15:36 32.73424 -117.19498 26 ft 29 kts 250°
2026-05-04 15:36 32.73430 -117.19704 26 ft 24 kts 286°
2026-05-04 15:37 32.73473 -117.19874 26 ft 20 kts 286°
2026-05-04 15:37 32.73511 -117.20034 26 ft 17 kts 286°
2026-05-04 15:37 32.73508 -117.20117 26 ft 10 kts 224°
2026-05-04 15:37 32.73446 -117.20128 26 ft 4 kts 168°
2026-05-04 15:38 32.73420 -117.20120 26 ft 2 kts 166°
2026-05-04 15:38 32.73414 -117.20119 26 ft 0 kts 166°
2026-05-04 15:38 32.73413 -117.20119 26 ft 0 kts 166°